ARABSAT 1A

Satellite information

Favourite Embed

Satellite Type and Status

PAYLOADIN ORBIT

Key statistics

Satellite ARABSAT 1A at a glance.

Uptime

14880

Days in orbit

Revolutions

≈ 1.0

Per day

Orbit

OTHER

Other

Inclination

12.1

Latest

Satellite identification and parameters

Extended collection of information and parameters for ARABSAT 1A.

Object identification

Identified? True

Debris? False

Object name: ARABSAT 1A

International designator: 1985-015A

Object number (NORAD): 15560

Object ID (CCSDS): 15560

Country: ARAB SATELLITE COMMUNICATIONS ORGANIZATION (AB)

Current information (Y/N): Y

RCS size: LARGE

Orbital parameters

Period: 1436.676 minutes

Inclination: 12.1109 deg

SMA: 42176.076 km

Apoapsis: 35954.56 km

Periapsis: 35641.322 km

RAAN: 332.7717 deg

Eccentricy: 0.00371345

Argument of periapsis: 234.625 deg

Mean anomaly: 127.267 deg

Mean motion: 1.00231334 rev/day

Mean motion (dot): -0.000003 rev/day2

B* drag term: 0.0 1/REarth

Two-line elements (TLE)

Creation date: Nov. 4, 2025, 5:59 p.m.

Reference frame: TEME

Reference center: EARTH

Epoch: Nov. 4, 2025, 10:05 a.m. UTC

TLE line 0: 0 ARABSAT 1A

TLE line 1: 1 15560U 85015A 25308.42077970 -.00000300 00000-0 00000-0 0 9994

TLE line 2: 2 15560 12.1109 332.7717 0037135 234.6250 127.2670 1.00231334123765

Live tracking on map

Real-time ground track for satellite ARABSAT 1A.

In-orbit conjunctions

There are no conjunctions computed for ARABSAT 1A, at the moment. Check back to stay up to date, as we update our databases every day.

Go to all conjunctions

Associated space launch

Geostationary communications satellites

ARABSAT 1A was lifted into orbit during the mission ‘Ariane 3 | Arabsat 1A & Brasilsat A1’, on board a Ariane 3 space rocket.

The launch took place on Feb. 8, 1985, 11:22 p.m. from Ariane Launch Area 1 (ELV).

For more information about the launch, click the button.

Launch to space Ariane 3 | Arabsat 1A & Brasilsat A1
Ariane 3 | Arabsat 1A & Brasilsat A1

Agency: N/A

Status: Launch Successful

Launch date: Feb. 8, 1985, 11:22 p.m. UTC

Rocket: Ariane 3

Launch pad: Ariane Launch Area 1 (ELV)

Location: Guiana Space Centre, French Guiana

...

Latest news about this satellite

There are no fresh news available about this satellite. Check back as we update our databases every day.


Newsletter sign-up

Weekly statistics, charts and insights to help you stay on top of the space industry.